Temperature
12 12 12 12 12 12 12 12 12 12 12 12 12 12 12 12 12 12 12 12 12 12 12 12 12 12 12 12 12 12 12 12 12 12 12 12 11 11 11 11 11 11 11
11 11 11 11 11 11 11 11 11 11 11 12 12 12 12 12 12 12 12 12 12 12 12 12 12 12 11 11 11 11 11 12 12 12 11 11 11 11 11 11 10 10 10
11 11 11 11 11 11 11 11 11 11 11 11 11 11 11 11 11 11 11 11 11 11 11 11 11 11 11 11 11 11 11 11 11 11 11 11 11 10 10 10 10 10 10
10 11 11 11 10 10 10 10 10 10 11 11 11 11 11 11 11 11 11 11 11 11 11 11 11 11 11 11 11 11 11 11 11 11 11 11 10 10 10 10 10 10 10
10 10 10 10 10 10 10 10 10 10 10 10 10 10 10 10 10 10 11 11 11 11 11 11 11 11 11 11 10 10 10 10 10 10 10 10 10 10 10 10 10 10 10
9 10 10 10 10 10 10 10 10 9 9 10 9 9 10 10 10 10 10 10 10 10 10 10 10 10 10 10 10 10 10 10 10 10 10 10 10 10 9 9 9 9 9
9 9 9 9 9 9 9 9 9 9 9 9 9 9 9 9 9 10 10 10 10 10 10 10 10 10 10 10 10 10 10 10 10 10 9 9 9 9 9 9 9 9 9
8 8 9 9 9 9 9 9 9 9 9 9 9 8 8 9 9 9 9 9 10 9 9 9 10 10 10 10 10 10 9 9 9 9 9 9 9 9 9 9 9 9 9
8 8 8 8 8 9 9 9 9 9 9 8 8 8 8 8 8 9 9 9 9 9 9 9 9 9 9 9 9 9 9 9 9 9 9 9 9 9 9 8 8 8 8
7 7 7 8 8 8 8 8 8 8 8 8 8 8 8 8 8 8 8 8 8 8 9 9 9 9 9 9 9 9 9 9 9 9 9 8 8 8 8 8 8 8 8
7 7 7 7 7 8 8 8 8 8 8 8 8 8 8 8 8 8 8 8 8 8 8 8 8 8 8 8 8 8 8 8 8 8 8 8 8 8 8 8 8 8 7
6 6 6 7 7 7 7 7 7 7 8 8 8 8 8 8 8 8 8 8 8 8 8 8 8 8 8 8 8 8 8 8 8 8 8 8 8 8 8 8 8 7 7
6 6 6 6 6 7 7 7 7 7 7 7 7 7 7 7 7 8 7 7 7 7 7 7 7 7 7 7 8 8 8 8 8 8 7 7 7 7 7 7 7 7 7
5 6 6 6 6 6 6 6 6 7 6 7 6 6 7 7 7 7 7 7 6 6 7 7 7 7 7 7 7 7 7 7 7 7 7 7 7 7 7 7 7 7 7
5 5 5 5 5 5 5 6 6 6 6 6 6 6 6 6 6 6 6 6 6 6 6 6 7 7 7 7 7 6 7 7 7 7 7 7 6 6 6 6 6 6 6
4 4 4 5 5 5 5 5 5 5 5 6 6 6 6 6 6 6 6 6 6 6 5 6 6 6 6 6 6 6 6 6 6 6 6 6 6 6 6 6 6 6 6
4 4 4 4 4 4 4 4 5 5 5 5 5 5 5 5 5 5 5 5 5 5 5 5 5 5 5 5 6 6 6 6 6 6 6 6 5 5 5 5 5 5 5
3 3 4 4 4 4 4 4 4 4 4 4 5 5 5 5 5 5 5 5 5 5 5 5 5 5 5 5 5 5 5 5 5 5 5 5 5 5 5 5 5 5 5
2 3 3 3 3 3 3 4 4 4 4 4 4 4 5 4 4 4 4 4 4 4 4 4 4 4 4 4 4 4 5 5 5 4 4 4 4 4 4 4 4 4 4
2 2 2 2 3 3 3 3 3 3 3 3 3 3 4 4 4 4 4 4 4 4 3 3 4 4 4 4 4 4 4 4 4 4 4 4 4 4 4 4 4 4 4
1 1 1 2 2 2 2 2 2 2 3 3 3 3 3 3 3 3 3 3 3 3 3 3 3 3 3 3 3 3 3 3 3 3 3 3 3 3 3 3 3 3 3
0 0 1 1 1 1 2 2 2 2 2 2 2 2 2 2 3 2 2 2 2 3 3 2 2 2 3 3 3 2 2 2 2 3 3 3 3 3 3 3 2 2 2
-0 -0 -0 0 1 1 1 1 1 1 1 2 2 2 2 2 2 2 2 2 2 2 2 2 2 2 2 2 2 2 2 2 2 2 2 2 2 2 2 2 2 2 2
-1 -1 -1 -0 0 0 0 1 1 1 1 1 1 2 2 2 1 1 2 2 2 2 2 2 2 2 2 2 2 2 1 1 1 1 1 1 1 1 1 1 1 1 1
-2 -1 -1 -1 -0 -0 -0 0 0 0 1 1 1 1 1 1 1 1 1 1 1 2 2 1 1 1 1 1 1 1 1 1 1 1 1 0 0 0 0 0 0 0 0
-2 -2 -2 -1 -1 -1 -1 -0 -0 -0 0 0 0 0 0 0 0 0 0 1 1 1 1 1 1 1 1 1 1 1 1 0 0 0 0 -0 -0 -0 -1 -0 -0 -0 -0
Wind_Speed
2 2 1 2 2 3 4 3 3 3 3 3 3 3 3 3 3 4 4 6 7 8 8 8 8 9 9 9 8 8 8 8 7 7 8 8 7 7 7 7 7 6 6
3 2 1 1 1 3 4 4 4 3 3 3 3 3 3 3 4 4 4 5 6 7 8 8 8 8 9 9 8 7 7 7 7 7 7 7 7 7 7 7 6 6 5
3 3 2 1 1 3 3 3 3 3 2 2 2 2 3 3 4 4 4 4 5 5 6 7 7 8 9 9 8 7 7 7 6 6 6 6 6 7 7 7 6 5 5
4 3 2 2 2 3 3 3 2 2 2 1 1 1 2 3 3 4 4 5 5 4 4 5 6 8 8 8 8 7 7 7 7 6 6 6 6 6 7 7 6 6 5
3 3 2 2 3 3 2 3 2 2 2 2 2 1 1 1 2 3 4 4 4 4 4 4 5 6 8 8 8 8 8 7 7 6 7 6 6 6 6 7 7 6 5
3 3 2 3 3 2 2 2 3 2 2 2 2 1 1 0 1 2 2 3 3 4 4 4 4 4 6 7 8 8 8 8 7 7 7 7 7 7 6 6 6 6 6
3 3 2 2 3 3 3 3 3 3 1 2 2 1 2 1 1 1 1 2 2 2 3 3 4 3 3 4 6 7 7 8 8 8 8 8 8 8 7 6 6 5 5
4 3 3 3 3 3 3 3 3 2 1 2 2 2 0 1 2 1 0 1 1 2 2 3 4 4 3 2 2 4 5 6 8 9 9 9 9 9 9 8 7 6 5
4 4 3 3 3 3 4 4 4 4 3 1 2 3 3 3 1 1 1 1 1 1 1 2 2 3 3 3 3 3 5 6 7 8 9 9 9 10 10 9 8 7 6
4 4 4 4 4 3 4 4 4 3 5 4 2 1 2 3 2 1 1 1 1 1 2 1 2 3 3 3 3 4 5 6 7 8 9 9 9 9 9 9 8 7 7
4 4 4 4 4 3 4 4 3 3 3 4 3 2 1 1 1 2 2 2 1 2 2 2 2 3 4 4 4 5 5 6 7 8 9 9 9 8 8 8 8 8 7
3 3 4 4 4 3 4 4 4 4 3 3 3 3 3 3 3 3 3 3 2 2 2 2 3 3 4 4 5 6 6 6 7 8 9 9 9 9 8 9 9 8 8
3 4 3 3 4 4 4 3 3 4 4 4 4 3 3 3 2 3 3 2 2 2 2 2 3 4 4 4 5 6 6 7 7 8 8 8 8 9 9 9 9 8 8
4 4 4 3 4 4 4 4 3 3 3 4 4 4 3 3 3 3 3 3 2 2 2 3 2 3 4 5 5 6 6 7 8 7 7 7 7 8 8 9 9 8 8
3 3 3 3 3 4 4 4 3 4 4 4 4 4 3 3 2 3 3 4 4 3 4 4 3 3 4 4 5 5 6 7 8 7 7 8 8 8 8 8 9 8 8
3 3 3 4 3 3 4 4 4 3 4 3 3 4 3 2 2 2 3 3 3 4 4 3 3 3 3 3 5 5 6 6 7 8 8 8 8 8 8 8 8 8 8
3 3 4 4 4 4 4 4 4 4 4 3 3 4 4 3 3 2 2 2 2 3 4 3 2 2 3 3 3 4 5 5 5 7 8 8 8 8 8 8 9 8 8
3 3 3 3 4 4 4 5 5 4 4 4 4 3 4 3 3 3 3 3 3 3 3 4 3 2 3 3 3 3 3 4 5 6 8 8 9 9 9 9 9 8 8
3 2 2 3 4 4 4 4 4 4 4 4 4 4 4 4 4 3 4 4 3 3 3 3 3 2 2 2 2 2 2 3 4 5 7 8 8 8 8 8 7 7 7
2 2 2 3 3 3 4 4 4 4 4 4 4 4 4 5 5 5 4 4 4 3 3 3 3 3 2 2 2 2 2 2 2 3 5 6 6 7 7 6 6 6 6
3 2 2 2 2 2 3 4 4 4 4 4 4 4 4 5 5 5 4 4 4 4 4 4 4 3 3 2 3 2 3 2 2 2 2 2 3 3 4 5 5 5 6
3 3 3 3 3 2 3 3 3 4 4 4 4 4 3 4 5 6 5 5 6 6 5 5 4 5 5 4 2 3 2 2 3 1 1 2 1 2 3 4 5 5 5
4 3 3 3 2 3 3 2 2 2 3 4 4 3 3 3 4 4 5 5 6 7 7 6 6 7 6 6 5 4 4 4 4 2 1 2 1 2 3 3 4 4 4
4 3 3 3 3 3 4 3 2 2 3 3 4 4 4 4 4 4 3 3 4 4 6 5 6 6 5 5 6 5 4 2 1 1 1 2 2 2 2 2 3 4 4
4 3 3 3 3 4 4 4 2 2 2 2 2 2 3 3 5 4 4 4 4 3 4 6 6 6 6 6 5 3 3 3 2 2 1 2 2 1 2 2 2 3 3
4 3 3 3 3 4 4 4 3 2 2 2 2 2 3 3 4 4 4 4 5 4 2 1 2 2 3 4 5 5 5 4 2 2 2 2 2 1 1 2 1 0 1
Wind_Direction
111 108 113 133 151 151 146 137 131 131 125 123 127 121 114 122 138 148 157 162 166 173 172 167 161 157 153 150 145 143 141 137 137 136 137 140 142 140 137 130 122 120 119
132 132 130 133 161 168 164 152 151 147 139 130 130 129 121 127 135 139 146 157 166 172 176 175 172 169 168 163 158 152 149 148 148 146 147 149 154 156 150 143 137 136 128
152 152 154 162 175 170 156 141 140 134 138 137 146 138 127 123 130 137 143 145 153 166 173 179 181 179 176 172 167 166 164 163 161 162 164 167 167 168 165 158 151 148 141
169 158 165 183 178 158 146 143 154 144 145 147 153 163 127 126 132 138 142 146 148 156 168 178 185 183 182 180 177 178 179 177 175 179 179 178 178 178 180 173 168 161 155
170 161 174 182 173 149 146 164 152 156 154 149 146 149 133 130 145 138 136 144 151 156 164 177 183 190 189 190 190 189 189 186 187 191 194 193 191 185 185 187 179 175 177
186 173 174 173 161 159 160 159 149 146 158 161 134 85 21 262 128 150 164 149 151 163 170 173 178 192 195 199 202 201 197 197 197 202 203 201 197 196 193 192 190 190 195
201 189 187 176 174 181 176 162 151 149 144 144 115 60 4 352 282 230 174 148 138 152 159 169 172 175 195 208 213 212 212 209 208 210 212 206 202 201 199 202 200 203 208
212 207 191 188 186 180 166 162 151 161 165 158 143 136 43 340 327 291 231 173 163 134 144 167 169 172 175 179 213 226 224 223 220 216 215 215 213 210 209 209 210 214 220
222 214 206 193 192 184 179 179 175 173 179 193 171 165 171 209 249 312 283 222 180 162 178 171 179 192 194 194 209 232 239 238 236 230 225 222 222 218 214 216 215 219 224
232 219 209 204 201 196 187 188 181 180 174 187 211 221 201 171 176 219 296 283 237 213 218 206 201 212 212 209 223 238 239 244 245 242 236 231 229 224 221 222 220 225 229
232 226 213 208 205 201 194 192 183 184 187 189 191 193 197 213 192 187 224 255 283 259 238 222 207 211 216 215 227 238 239 244 252 252 244 239 235 231 229 227 225 227 231
233 230 223 214 210 203 196 196 189 190 197 195 194 189 186 188 190 185 207 218 238 259 252 236 218 216 221 222 227 233 237 246 254 256 249 247 241 237 240 236 231 231 236
240 224 230 216 216 210 199 190 189 198 199 196 200 206 204 209 189 181 191 213 233 264 262 249 232 222 224 226 230 238 241 247 254 252 249 252 248 245 246 243 234 233 238
240 219 225 221 221 208 202 193 195 204 202 203 207 202 203 211 198 189 185 186 217 257 255 251 255 227 223 226 235 237 243 248 252 250 248 253 253 251 250 249 237 236 240
253 228 217 221 217 204 202 197 205 206 201 208 206 203 205 209 198 199 189 184 191 228 246 236 238 233 231 231 238 235 240 247 246 245 250 256 256 253 249 248 238 236 238
250 237 217 211 207 207 204 198 204 202 199 215 212 199 208 209 196 190 193 198 198 211 238 231 228 235 232 239 243 237 239 248 243 243 250 256 256 248 245 241 240 241 240
251 240 225 208 206 208 205 201 202 197 199 215 222 207 209 204 199 200 194 196 203 200 232 250 231 233 221 228 249 243 243 244 246 247 249 252 252 245 245 242 244 244 242
278 251 230 220 215 213 208 201 201 201 200 207 218 213 211 204 203 203 199 206 213 210 215 239 250 234 236 229 226 228 243 251 251 253 251 252 250 246 243 241 242 241 241
284 278 245 234 225 219 213 207 202 201 204 208 214 216 212 200 212 212 210 214 215 217 209 219 243 244 241 227 221 243 251 262 265 258 254 254 251 250 245 240 239 241 244
289 284 274 256 244 227 215 206 204 203 214 220 219 219 214 205 211 211 214 214 209 207 205 210 225 234 236 227 201 225 261 261 272 275 263 258 254 250 244 240 237 240 243
295 278 270 268 262 239 220 206 200 207 216 224 227 227 229 225 217 214 216 209 203 207 207 213 221 229 226 209 220 217 238 258 278 248 247 260 256 252 250 239 239 241 242
294 285 274 265 264 258 256 242 220 206 216 222 228 229 233 233 225 227 229 222 211 209 209 215 224 224 224 217 214 220 222 239 265 229 211 280 257 258 255 248 237 230 229
316 304 294 282 270 266 275 264 251 216 212 220 223 225 238 245 247 225 232 238 238 236 228 220 219 224 218 209 200 215 222 229 244 207 189 272 290 279 275 246 232 224 225
311 297 295 289 284 286 290 281 269 245 231 224 220 219 224 234 233 221 213 224 233 237 237 230 227 229 224 208 205 212 213 220 260 268 209 248 261 262 284 270 229 230 234
310 299 290 290 283 283 286 282 270 232 229 235 238 234 224 227 237 231 219 220 234 248 255 246 241 233 229 221 198 169 177 189 237 251 214 208 229 271 301 290 257 239 233
298 300 294 285 277 273 284 284 270 220 223 237 246 252 254 249 249 238 221 212 225 233 212 237 234 220 210 205 203 196 192 197 213 235 211 185 198 190 283 289 288 297 259
Height
1532 1532 1533 1534 1535 1536 1537 1538 1539 1540 1541 1542 1543 1544 1545 1546 1547 1549 1550 1551 1553 1554 1555 1556 1557 1557 1558 1559 1559 1560 1561 1561 1562 1562 1562 1563 1563 1563 1563 1563 1563 1563 1563
1530 1530 1531 1532 1533 1534 1535 1536 1537 1538 1540 1541 1542 1543 1544 1545 1546 1547 1548 1549 1551 1552 1553 1554 1555 1556 1557 1558 1558 1559 1559 1560 1561 1561 1562 1562 1562 1562 1562 1562 1562 1562 1562
1527 1528 1529 1530 1531 1532 1533 1534 1535 1536 1538 1539 1540 1541 1542 1543 1544 1545 1546 1547 1549 1550 1552 1553 1554 1555 1555 1556 1557 1557 1558 1559 1560 1560 1560 1561 1561 1561 1561 1562 1562 1562 1561
1525 1526 1527 1527 1528 1529 1530 1532 1533 1534 1535 1536 1537 1539 1540 1541 1542 1543 1544 1545 1547 1548 1549 1550 1552 1553 1554 1554 1555 1556 1556 1557 1558 1558 1559 1559 1559 1560 1560 1560 1561 1560 1560
1522 1523 1524 1525 1526 1527 1528 1529 1530 1532 1532 1534 1535 1536 1537 1539 1540 1541 1542 1543 1544 1546 1547 1548 1549 1551 1552 1552 1553 1554 1555 1555 1556 1556 1557 1557 1558 1558 1558 1559 1559 1559 1559
1519 1520 1521 1522 1523 1524 1525 1526 1528 1529 1531 1531 1533 1534 1535 1536 1537 1538 1539 1541 1542 1543 1545 1546 1547 1548 1549 1550 1551 1552 1552 1553 1553 1554 1555 1555 1556 1556 1556 1557 1557 1557 1557
1516 1517 1518 1519 1520 1521 1522 1523 1525 1526 1528 1529 1531 1532 1533 1534 1535 1536 1537 1538 1539 1541 1542 1543 1544 1545 1546 1547 1548 1549 1550 1551 1551 1552 1552 1553 1553 1554 1554 1555 1555 1555 1555
1512 1514 1515 1515 1516 1518 1518 1520 1521 1523 1525 1527 1528 1529 1530 1532 1532 1533 1534 1535 1536 1537 1539 1540 1541 1542 1543 1544 1545 1546 1547 1548 1548 1549 1550 1550 1551 1551 1551 1552 1552 1552 1552
1509 1510 1511 1512 1513 1514 1515 1516 1518 1520 1521 1523 1525 1527 1528 1527 1529 1530 1531 1532 1533 1534 1535 1537 1538 1539 1540 1541 1542 1543 1544 1544 1545 1546 1546 1547 1547 1548 1548 1549 1549 1549 1550
1505 1506 1507 1508 1509 1510 1511 1513 1515 1516 1518 1519 1522 1523 1525 1525 1526 1526 1528 1529 1530 1531 1532 1533 1534 1535 1536 1537 1538 1539 1540 1541 1542 1542 1543 1543 1544 1545 1545 1545 1545 1546 1546
1501 1502 1503 1504 1505 1507 1508 1509 1511 1513 1514 1516 1517 1519 1521 1522 1522 1523 1523 1525 1526 1528 1529 1530 1530 1531 1532 1533 1534 1535 1536 1537 1538 1538 1539 1539 1540 1541 1541 1541 1542 1542 1542
1496 1497 1498 1500 1501 1503 1504 1505 1506 1509 1510 1512 1514 1515 1516 1518 1518 1519 1520 1521 1522 1524 1525 1526 1527 1528 1529 1529 1530 1531 1532 1533 1533 1534 1535 1535 1536 1536 1537 1537 1537 1538 1538
1491 1492 1494 1495 1496 1498 1499 1501 1502 1504 1506 1507 1509 1511 1512 1514 1515 1516 1517 1517 1518 1520 1521 1522 1523 1524 1525 1525 1526 1526 1527 1528 1529 1529 1530 1531 1531 1532 1532 1532 1533 1533 1534
1486 1487 1489 1490 1492 1493 1495 1497 1498 1500 1501 1503 1504 1506 1508 1509 1511 1512 1513 1514 1514 1515 1516 1517 1519 1520 1520 1521 1522 1522 1523 1523 1524 1525 1525 1526 1527 1527 1528 1528 1528 1528 1529
1483 1483 1485 1486 1488 1489 1491 1492 1494 1495 1497 1498 1500 1502 1503 1505 1506 1508 1509 1510 1512 1511 1511 1513 1514 1515 1516 1517 1517 1518 1518 1519 1519 1520 1520 1521 1522 1522 1523 1523 1523 1524 1524
1478 1479 1480 1482 1483 1485 1486 1488 1489 1491 1492 1494 1495 1497 1498 1500 1501 1503 1504 1506 1507 1508 1507 1508 1509 1510 1511 1512 1513 1513 1513 1514 1514 1515 1515 1516 1517 1517 1518 1518 1519 1519 1520
1474 1475 1476 1477 1479 1481 1482 1483 1485 1486 1488 1489 1491 1492 1493 1495 1497 1498 1499 1501 1502 1503 1503 1503 1504 1506 1506 1507 1508 1508 1509 1509 1509 1510 1510 1511 1512 1512 1513 1513 1513 1514 1515
1470 1471 1472 1473 1474 1476 1478 1479 1480 1482 1483 1484 1486 1487 1489 1491 1492 1493 1494 1495 1497 1498 1498 1498 1499 1500 1501 1502 1503 1503 1504 1504 1505 1505 1506 1506 1507 1507 1508 1508 1508 1509 1510
1466 1467 1468 1468 1470 1472 1473 1474 1476 1477 1479 1480 1481 1482 1484 1486 1487 1488 1489 1490 1491 1492 1493 1493 1494 1495 1496 1497 1497 1498 1499 1499 1500 1500 1500 1501 1502 1502 1502 1503 1503 1504 1504
1462 1462 1463 1464 1466 1467 1468 1470 1471 1473 1474 1475 1477 1478 1479 1481 1482 1483 1484 1485 1486 1487 1488 1489 1489 1490 1491 1492 1492 1493 1493 1494 1495 1495 1495 1496 1496 1496 1497 1497 1498 1498 1499
1458 1458 1459 1460 1461 1462 1464 1465 1467 1468 1469 1471 1472 1473 1475 1476 1477 1478 1479 1480 1481 1482 1483 1483 1484 1485 1486 1487 1488 1488 1489 1489 1489 1490 1490 1491 1491 1491 1491 1492 1492 1493 1493
1455 1455 1456 1456 1457 1458 1460 1462 1463 1464 1465 1466 1467 1468 1470 1471 1472 1473 1474 1475 1476 1477 1478 1479 1479 1480 1480 1482 1483 1484 1484 1484 1484 1486 1486 1486 1486 1486 1486 1487 1487 1488 1488
1451 1452 1452 1453 1454 1455 1456 1458 1459 1460 1461 1462 1463 1464 1464 1466 1467 1468 1469 1470 1471 1472 1473 1474 1474 1475 1476 1477 1478 1478 1479 1479 1479 1480 1481 1480 1481 1481 1482 1482 1483 1483 1483
1449 1449 1450 1450 1451 1452 1453 1454 1455 1456 1457 1458 1459 1459 1460 1461 1462 1463 1464 1465 1466 1467 1468 1469 1469 1470 1471 1472 1473 1474 1474 1474 1475 1476 1477 1476 1477 1477 1478 1478 1479 1479 1479
1447 1447 1447 1447 1448 1449 1450 1450 1451 1452 1453 1454 1454 1455 1456 1457 1458 1459 1460 1460 1461 1462 1463 1463 1464 1465 1466 1467 1468 1468 1469 1469 1469 1470 1472 1472 1472 1473 1473 1474 1474 1475 1475
1444 1444 1444 1445 1445 1445 1446 1447 1448 1448 1449 1450 1450 1451 1452 1453 1454 1454 1455 1456 1456 1457 1458 1458 1459 1459 1460 1461 1463 1463 1464 1464 1465 1466 1467 1468 1468 1469 1469 1469 1470 1470 1470